Simultaneous Nadir Overpasses (SNOs) Predictions

Prediction of SNOs between GOES-17 and METOP-B Satellite Orbit:

Table of predicted SNOs for the next 14.0 days since TLE Epoch: 1/21/2023
Index Date Time (GOES-17) GOES-17 Lat,Lon METOP-B Lat,Lon Distance(km) Time Diff (sec)
1 01/21/2023 06:06:29 -0.01,-126.69 -0.56,-129.29 295.80 80
2 01/22/2023 05:48:25 -0.01,-125.54 0.28,-124.23 148.66 80
3 01/24/2023 17:43:45 0.02,-122.64 0.25,-123.65 115.67 80
4 01/25/2023 17:25:40 0.03,-121.48 -0.60,-118.60 328.87 80
5 01/27/2023 05:41:53 -0.02,-119.71 -0.78,-123.11 387.31 80
6 01/28/2023 05:23:49 -0.03,-118.56 0.08,-118.05 57.15 80
7 01/30/2023 17:19:09 0.02,-115.65 0.42,-117.48 207.66 80
8 01/31/2023 17:01:04 0.03,-114.50 -0.45,-112.42 236.52 80
9 02/02/2023 05:17:17 -0.02,-112.71 -0.98,-116.92 480.30 80
10 02/03/2023 04:56:32 -0.03,-111.56 -0.10,-111.87 35.90 80
